This demonstration page uses our WeatherBlox Daily Observations layout. Learn more.

Hourly Observations for January 2, 2020

Temp ( °F °C ) Dew Point ( °F °C ) Humidity (%) Winds ( mph kmh ) Pressure ( in mb ) Visibility ( mi km ) Precip ( " mm )
12:54 am 00:54 Clear 32 0 27 -2.8 82 82 SW 5 7 29.44 997 10 16.0934 0 0
1:54 am 01:54 Clear 30 -1.1 26 -3.3 85 85 Calm 29.46 998 10 16.0934 0 0
2:54 am 02:54 Clear 29 -1.7 26 -3.3 89 89 S 7 11 29.47 998 10 16.0934 0 0
3:54 am 03:54 Clear 28 -2.2 25 -3.9 88 88 S 7 11 29.5 999 10 16.0934 0 0
4:54 am 04:54 Clear 27 -2.8 25 -3.9 92 92 S 5 7 29.51 999 10 16.0934 0 0
5:54 am 05:54 Clear 27 -2.8 24 -4.4 89 89 S 3 6 29.52 1000 10 16.0934 0 0
6:54 am 06:54 Clear 27 -2.8 24 -4.4 89 89 Calm 29.55 1001 10 16.0934 0 0
7:54 am 07:54 Sunny 23 -5 21 -6.1 92 92 Calm 29.57 1002 10 16.0934 0 0
8:54 am 08:54 Sunny 30 -1.1 26 -3.3 85 85 Calm 29.61 1003 10 16.0934 0 0
9:54 am 09:54 Sunny 39 3.9 32 0 76 76 N 9 15 29.64 1004 10 16.0934 0 0
10:54 am 10:54 Sunny 43 6.1 34 1.1 71 71 N 12 19 29.66 1004 10 16.0934 0 0
11:54 am 11:54 Sunny 43 6.1 33 0.6 68 68 N 14 22 29.67 1005 10 16.0934 0 0
12:13 pm 12:13 Mostly Sunny 44 6.7 33 0.6 65 65 N 15 24 29.68 1005 10 16.0934 0 0
12:33 pm 12:33 Mostly Cloudy 42 5.6 33 0.6 71 71 N 15 24 29.68 1005 10 16.0934 0 0
12:54 pm 12:54 Cloudy 41 5 33 0.6 73 73 N 13 20 29.68 1005 10 16.0934 0 0
1:34 pm 13:34 Cloudy 41 5 33 0.6 73 73 NNW 10 17 29.69 1006 10 16.0934 0 0
1:54 pm 13:54 Cloudy 41 5 33 0.6 73 73 N 10 17 29.69 1005 10 16.0934 0 0
2:18 pm 14:18 Cloudy 40 4.4 32 0 73 73 NNW 13 20 29.71 1006 10 16.0934 0 0
2:54 pm 14:54 Cloudy 40 4.4 32 0 73 73 N 12 19 29.7 1006 10 16.0934 0 0
3:54 pm 15:54 Cloudy 40 4.4 32 0 73 73 NNW 10 17 29.72 1006 10 16.0934 0 0
4:54 pm 16:54 Cloudy 39 3.9 31 -0.6 73 73 NNW 9 15 29.74 1007 10 16.0934 0 0
5:19 pm 17:19 Cloudy 39 3.9 31 -0.6 73 73 N 13 20 29.76 1008 10 16.0934 0 0
5:54 pm 17:54 Cloudy 38 3.3 30 -1.1 73 73 N 10 17 29.76 1008 10 16.0934 0 0
6:54 pm 18:54 Cloudy 38 3.3 30 -1.1 73 73 NNW 6 9 29.8 1009 10 16.0934 0 0
7:54 pm 19:54 Cloudy 37 2.8 29 -1.7 73 73 NNW 9 15 29.83 1010 10 16.0934 0 0
8:54 pm 20:54 Mostly Cloudy 34 1.1 27 -2.8 76 76 N 3 6 29.82 1010 10 16.0934 0 0
9:03 pm 21:03 Partly Cloudy 34 1.1 28 -2.2 79 79 N 3 6 29.84 1011 10 16.0934 0 0
9:54 pm 21:54 Clear 31 -0.6 25 -3.9 79 79 Calm 29.84 1010 10 16.0934 0 0
10:54 pm 22:54 Clear 23 -5 21 -6.1 92 92 Calm 29.85 1011 10 16.0934 0 0
11:54 pm 23:54 Clear 26 -3.3 23 -5 88 88 Calm 29.85 1011 10 16.0934 0 0

Powered by AerisWeather